Year,Month,Day,Hour,Minute,Value (Times are PST for temperature in C)
2011,08,21,00,00,15.40
2011,08,21,00,01,15.40
2011,08,21,00,02,15.40
2011,08,21,00,03,15.30
2011,08,21,00,04,15.30
2011,08,21,00,05,15.30
2011,08,21,00,06,15.30
2011,08,21,00,07,15.30
2011,08,21,00,08,15.30
2011,08,21,00,09,15.20
2011,08,21,00,10,15.20
2011,08,21,00,11,15.20
2011,08,21,00,12,15.20
2011,08,21,00,13,15.20
2011,08,21,00,14,15.10
2011,08,21,00,15,15.10
2011,08,21,00,16,15.00
2011,08,21,00,17,15.00
2011,08,21,00,18,15.00
2011,08,21,00,19,15.00
2011,08,21,00,20,15.00
2011,08,21,00,21,15.00
2011,08,21,00,22,15.00
2011,08,21,00,23,15.00
2011,08,21,00,24,15.00
2011,08,21,00,25,15.00
2011,08,21,00,26,15.00
2011,08,21,00,27,15.00
2011,08,21,00,28,15.00
2011,08,21,00,29,14.90
2011,08,21,00,30,14.80
2011,08,21,00,31,14.80
2011,08,21,00,32,14.80
2011,08,21,00,33,14.70
2011,08,21,00,34,14.70
2011,08,21,00,35,14.70
2011,08,21,00,36,14.70
2011,08,21,00,37,14.70
2011,08,21,00,38,14.70
2011,08,21,00,39,14.70
2011,08,21,00,40,14.70
2011,08,21,00,41,14.60
2011,08,21,00,42,14.60
2011,08,21,00,43,14.60
2011,08,21,00,44,14.60
2011,08,21,00,45,14.60
2011,08,21,00,46,14.50
2011,08,21,00,47,14.60
2011,08,21,00,48,14.50
2011,08,21,00,49,14.50
2011,08,21,00,50,14.50
2011,08,21,00,51,14.50
2011,08,21,00,52,14.50
2011,08,21,00,53,14.50
2011,08,21,00,54,14.50
2011,08,21,00,55,14.50
2011,08,21,00,56,14.50
2011,08,21,00,57,14.50
2011,08,21,00,58,14.50
2011,08,21,00,59,14.50
2011,08,21,01,00,14.50
2011,08,21,01,01,14.50
2011,08,21,01,02,14.50
2011,08,21,01,03,14.50
2011,08,21,01,04,14.50
2011,08,21,01,05,14.50
2011,08,21,01,06,14.50
2011,08,21,01,07,14.50
2011,08,21,01,08,14.50
2011,08,21,01,09,14.40
2011,08,21,01,10,14.40
2011,08,21,01,11,14.40
2011,08,21,01,12,14.40
2011,08,21,01,13,14.30
2011,08,21,01,14,14.30
2011,08,21,01,15,14.30
2011,08,21,01,16,14.30
2011,08,21,01,17,14.30
2011,08,21,01,18,14.30
2011,08,21,01,19,14.30
2011,08,21,01,20,14.30
2011,08,21,01,21,14.30
2011,08,21,01,22,14.30
2011,08,21,01,23,14.30
2011,08,21,01,24,14.30
2011,08,21,01,25,14.30
2011,08,21,01,26,14.30
2011,08,21,01,27,14.30
2011,08,21,01,28,14.30
2011,08,21,01,29,14.30
2011,08,21,01,30,14.40
2011,08,21,01,31,14.40
2011,08,21,01,32,14.40
2011,08,21,01,33,14.40
2011,08,21,01,34,14.40
2011,08,21,01,35,14.40
2011,08,21,01,36,14.40
2011,08,21,01,37,14.30
2011,08,21,01,38,14.30
2011,08,21,01,39,14.30
2011,08,21,01,40,14.30
2011,08,21,01,41,14.30
2011,08,21,01,42,14.30
2011,08,21,01,43,14.20
2011,08,21,01,44,14.20
2011,08,21,01,45,14.20
2011,08,21,01,46,14.20
2011,08,21,01,47,14.20
2011,08,21,01,48,14.20
2011,08,21,01,49,14.20
2011,08,21,01,50,14.20
2011,08,21,01,51,14.20
2011,08,21,01,52,14.20
2011,08,21,01,53,14.20
2011,08,21,01,54,14.20
2011,08,21,01,55,14.20
2011,08,21,01,56,14.20
2011,08,21,01,57,14.20
2011,08,21,01,58,14.30
2011,08,21,01,59,14.30
2011,08,21,02,00,14.20
2011,08,21,02,01,14.20
2011,08,21,02,02,14.20
2011,08,21,02,03,14.20
2011,08,21,02,04,14.20
2011,08,21,02,05,14.20
2011,08,21,02,06,14.20
2011,08,21,02,07,14.20
2011,08,21,02,08,14.10
2011,08,21,02,09,14.10
2011,08,21,02,10,14.10
2011,08,21,02,11,14.10
2011,08,21,02,12,14.10
2011,08,21,02,13,14.10
2011,08,21,02,14,14.10
2011,08,21,02,15,14.10
2011,08,21,02,16,14.00
2011,08,21,02,17,14.00
2011,08,21,02,18,14.00
2011,08,21,02,19,14.00
2011,08,21,02,20,14.00
2011,08,21,02,21,14.00
2011,08,21,02,22,14.00
2011,08,21,02,23,14.00
2011,08,21,02,24,14.00
2011,08,21,02,25,14.00
2011,08,21,02,26,14.00
2011,08,21,02,27,14.00
2011,08,21,02,28,14.00
2011,08,21,02,29,14.00
2011,08,21,02,30,14.00
2011,08,21,02,31,14.00
2011,08,21,02,32,13.90
2011,08,21,02,33,13.90
2011,08,21,02,34,13.90
2011,08,21,02,35,13.90
2011,08,21,02,36,13.90
2011,08,21,02,37,13.90
2011,08,21,02,38,13.90
2011,08,21,02,39,13.90
2011,08,21,02,40,13.90
2011,08,21,02,41,13.90
2011,08,21,02,42,13.90
2011,08,21,02,43,13.90
2011,08,21,02,44,13.90
2011,08,21,02,45,13.90
2011,08,21,02,46,13.90
2011,08,21,02,47,13.90
2011,08,21,02,48,13.80
2011,08,21,02,49,13.80
2011,08,21,02,50,13.80
2011,08,21,02,51,13.80
2011,08,21,02,52,13.80
2011,08,21,02,53,13.80
2011,08,21,02,54,13.70
2011,08,21,02,55,13.70
2011,08,21,02,56,13.60
2011,08,21,02,57,13.60
2011,08,21,02,58,13.60
2011,08,21,02,59,13.50
2011,08,21,03,00,13.50
2011,08,21,03,01,13.50
2011,08,21,03,02,13.40
2011,08,21,03,06,13.40
2011,08,21,03,07,13.40
2011,08,21,03,08,13.40
2011,08,21,03,09,13.40
2011,08,21,03,10,13.40
2011,08,21,03,11,13.40
2011,08,21,03,12,13.30
2011,08,21,03,13,13.30
2011,08,21,03,14,13.30
2011,08,21,03,15,13.30
2011,08,21,03,16,13.30
2011,08,21,03,17,13.20
2011,08,21,03,18,13.20
2011,08,21,03,19,13.20
2011,08,21,03,20,13.20
2011,08,21,03,21,13.10
2011,08,21,03,22,13.10
2011,08,21,03,23,13.10
2011,08,21,03,24,13.00
2011,08,21,03,25,13.00
2011,08,21,03,26,13.00
2011,08,21,03,27,13.00
2011,08,21,03,28,13.00
2011,08,21,03,29,13.00
2011,08,21,03,30,13.00
2011,08,21,03,31,13.00
2011,08,21,03,32,13.00
2011,08,21,03,33,13.00
2011,08,21,03,34,13.10
2011,08,21,03,35,13.10
2011,08,21,03,36,13.10
2011,08,21,03,37,13.10
2011,08,21,03,38,13.10
2011,08,21,03,39,13.10
2011,08,21,03,40,13.10
2011,08,21,03,41,13.10
2011,08,21,03,42,13.10
2011,08,21,03,43,13.10
2011,08,21,03,44,13.10
2011,08,21,03,45,13.10
2011,08,21,03,46,13.10
2011,08,21,03,47,13.10
2011,08,21,03,48,13.10
2011,08,21,03,49,13.10
2011,08,21,03,50,13.00
2011,08,21,03,51,13.00
2011,08,21,03,52,13.00
2011,08,21,03,53,12.90
2011,08,21,03,54,12.90
2011,08,21,03,55,12.90
2011,08,21,03,56,12.90
2011,08,21,03,57,12.90
2011,08,21,03,58,13.00
2011,08,21,03,59,13.00
2011,08,21,04,00,13.00
2011,08,21,04,01,13.00
2011,08,21,04,02,13.00
2011,08,21,04,03,13.00
2011,08,21,04,04,13.00
2011,08,21,04,05,13.00
2011,08,21,04,06,13.00
2011,08,21,04,07,13.00
2011,08,21,04,08,13.00
2011,08,21,04,09,13.00
2011,08,21,04,10,13.00
2011,08,21,04,11,13.00
2011,08,21,04,12,13.00
2011,08,21,04,13,13.00
2011,08,21,04,14,13.00
2011,08,21,04,15,13.00
2011,08,21,04,16,13.00
2011,08,21,04,17,13.00
2011,08,21,04,18,12.90
2011,08,21,04,19,12.90
2011,08,21,04,20,12.90
2011,08,21,04,21,12.90
2011,08,21,04,22,12.90
2011,08,21,04,23,12.80
2011,08,21,04,24,12.80
2011,08,21,04,25,12.80
2011,08,21,04,26,12.80
2011,08,21,04,27,12.80
2011,08,21,04,28,12.80
2011,08,21,04,29,12.80
2011,08,21,04,30,12.80
2011,08,21,04,31,12.80
2011,08,21,04,32,12.80
2011,08,21,04,33,12.80
2011,08,21,04,34,12.70
2011,08,21,04,35,12.70
2011,08,21,04,36,12.70
2011,08,21,04,37,12.70
2011,08,21,04,38,12.70
2011,08,21,04,39,12.70
2011,08,21,04,40,12.80
2011,08,21,04,41,12.80
2011,08,21,04,42,12.80
2011,08,21,04,43,12.70
2011,08,21,04,44,12.70
2011,08,21,04,45,12.70
2011,08,21,04,46,12.70
2011,08,21,04,47,12.70
2011,08,21,04,48,12.70
2011,08,21,04,49,12.60
2011,08,21,04,50,12.60
2011,08,21,04,51,12.60
2011,08,21,04,52,12.60
2011,08,21,04,53,12.60
2011,08,21,04,54,12.70
2011,08,21,04,55,12.70
2011,08,21,04,56,12.70
2011,08,21,04,57,12.70
2011,08,21,04,58,12.70
2011,08,21,04,59,12.70
2011,08,21,05,00,12.70
2011,08,21,05,01,12.70
2011,08,21,05,02,12.70
2011,08,21,05,03,12.70
2011,08,21,05,04,12.70
2011,08,21,05,05,12.70
2011,08,21,05,06,12.70
2011,08,21,05,07,12.70
2011,08,21,05,08,12.70
2011,08,21,05,09,12.70
2011,08,21,05,10,12.70
2011,08,21,05,11,12.70
2011,08,21,05,12,12.70
2011,08,21,05,13,12.60
2011,08,21,05,14,12.60
2011,08,21,05,15,12.60
2011,08,21,05,16,12.60
2011,08,21,05,17,12.60
2011,08,21,05,18,12.60
2011,08,21,05,19,12.60
2011,08,21,05,20,12.60
2011,08,21,05,21,12.60
2011,08,21,05,22,12.60
2011,08,21,05,23,12.60
2011,08,21,05,24,12.60
2011,08,21,05,25,12.60
2011,08,21,05,26,12.60
2011,08,21,05,27,12.50
2011,08,21,05,28,12.50
2011,08,21,05,29,12.50
2011,08,21,05,30,12.50
2011,08,21,05,31,12.40
2011,08,21,05,32,12.40
2011,08,21,05,33,12.40
2011,08,21,05,34,12.40
2011,08,21,05,35,12.40
2011,08,21,05,36,12.40
2011,08,21,05,37,12.40
2011,08,21,05,38,12.40
2011,08,21,05,39,12.40
2011,08,21,05,40,12.40
2011,08,21,05,41,12.40
2011,08,21,05,42,12.40
2011,08,21,05,43,12.40
2011,08,21,05,44,12.40
2011,08,21,05,45,12.40
2011,08,21,05,46,12.50
2011,08,21,05,47,12.50
2011,08,21,05,48,12.50
2011,08,21,05,49,12.50
2011,08,21,05,50,12.50
2011,08,21,05,51,12.60
2011,08,21,05,52,12.60
2011,08,21,05,53,12.60
2011,08,21,05,54,12.60
2011,08,21,05,55,12.60
2011,08,21,05,56,12.60
2011,08,21,05,57,12.60
2011,08,21,05,58,12.60
2011,08,21,05,59,12.60
2011,08,21,06,00,12.60
2011,08,21,06,01,12.60
2011,08,21,06,02,12.70
2011,08,21,06,03,12.70
2011,08,21,06,04,12.70
2011,08,21,06,05,12.80
2011,08,21,06,06,12.80
2011,08,21,06,07,12.80
2011,08,21,06,08,12.80
2011,08,21,06,09,12.80
2011,08,21,06,10,12.80
2011,08,21,06,11,12.90
2011,08,21,06,12,12.90
2011,08,21,06,13,12.90
2011,08,21,06,14,12.90
2011,08,21,06,15,12.90
2011,08,21,06,16,12.90
2011,08,21,06,17,12.90
2011,08,21,06,18,12.90
2011,08,21,06,19,12.90
2011,08,21,06,20,12.90
2011,08,21,06,21,13.00
2011,08,21,06,22,13.00
2011,08,21,06,23,13.00
2011,08,21,06,24,13.10
2011,08,21,06,25,13.10
2011,08,21,06,26,13.10
2011,08,21,06,27,13.10
2011,08,21,06,28,13.10
2011,08,21,06,29,13.10
2011,08,21,06,30,13.10
2011,08,21,06,31,13.10
2011,08,21,06,32,13.10
2011,08,21,06,33,13.10
2011,08,21,06,34,13.10
2011,08,21,06,35,13.10
2011,08,21,06,36,13.10
2011,08,21,06,37,13.20
2011,08,21,06,38,13.20
2011,08,21,06,39,13.20
2011,08,21,06,40,13.20
2011,08,21,06,41,13.20
2011,08,21,06,42,13.20
2011,08,21,06,43,13.20
2011,08,21,06,44,13.20
2011,08,21,06,45,13.20
2011,08,21,06,46,13.20
2011,08,21,06,47,13.20
2011,08,21,06,48,13.30
2011,08,21,06,49,13.30
2011,08,21,06,50,13.30
2011,08,21,06,51,13.30
2011,08,21,06,52,13.30
2011,08,21,06,53,13.30
2011,08,21,06,54,13.30
2011,08,21,06,55,13.40
2011,08,21,06,56,13.40
2011,08,21,06,57,13.40
2011,08,21,06,58,13.40
2011,08,21,06,59,13.40
2011,08,21,07,00,13.40
2011,08,21,07,01,13.50
2011,08,21,07,02,13.60
2011,08,21,07,03,13.60
2011,08,21,07,04,13.70
2011,08,21,07,05,13.70
2011,08,21,07,06,13.80
2011,08,21,07,07,13.90
2011,08,21,07,08,14.00
2011,08,21,07,09,14.00
2011,08,21,07,10,14.10
2011,08,21,07,11,14.10
2011,08,21,07,12,14.10
2011,08,21,07,13,14.10
2011,08,21,07,14,14.10
2011,08,21,07,15,14.10
2011,08,21,07,16,14.10
2011,08,21,07,17,14.20
2011,08,21,07,18,14.20
2011,08,21,07,19,14.20
2011,08,21,07,20,14.20
2011,08,21,07,21,14.20
2011,08,21,07,22,14.20
2011,08,21,07,23,14.20
2011,08,21,07,24,14.20
2011,08,21,07,25,14.20
2011,08,21,07,26,14.20
2011,08,21,07,27,14.20
2011,08,21,07,28,14.20
2011,08,21,07,29,14.20
2011,08,21,07,30,14.30
2011,08,21,07,31,14.30
2011,08,21,07,32,14.30
2011,08,21,07,33,14.30
2011,08,21,07,34,14.30
2011,08,21,07,35,14.30
2011,08,21,07,36,14.40
2011,08,21,07,37,14.40
2011,08,21,07,38,14.40
2011,08,21,07,39,14.40
2011,08,21,07,40,14.40
2011,08,21,07,41,14.50
2011,08,21,07,42,14.50
2011,08,21,07,43,14.50
2011,08,21,07,44,14.60
2011,08,21,07,45,14.60
2011,08,21,07,46,14.60
2011,08,21,07,47,14.70
2011,08,21,07,48,14.70
2011,08,21,07,49,14.70
2011,08,21,07,50,14.80
2011,08,21,07,51,14.80
2011,08,21,07,52,14.90
2011,08,21,07,53,15.00
2011,08,21,07,54,15.00
2011,08,21,07,55,15.00
2011,08,21,07,56,15.10
2011,08,21,07,57,15.20
2011,08,21,07,58,15.30
2011,08,21,07,59,15.40
2011,08,21,08,00,15.50
2011,08,21,08,01,15.70
2011,08,21,08,02,15.80
2011,08,21,08,03,15.80
2011,08,21,08,04,15.90
2011,08,21,08,05,16.00
2011,08,21,08,06,16.10
2011,08,21,08,07,16.10
2011,08,21,08,08,16.20
2011,08,21,08,09,16.20
2011,08,21,08,10,16.20
2011,08,21,08,11,16.20
2011,08,21,08,12,16.20
2011,08,21,08,13,16.20
2011,08,21,08,14,16.20
2011,08,21,08,15,16.20
2011,08,21,08,16,16.20
2011,08,21,08,17,16.20
2011,08,21,08,18,16.20
2011,08,21,08,19,16.20
2011,08,21,08,20,16.20
2011,08,21,08,21,16.20
2011,08,21,08,22,16.20
2011,08,21,08,23,16.20
2011,08,21,08,24,16.30
2011,08,21,08,25,16.30
2011,08,21,08,26,16.30
2011,08,21,08,27,16.40
2011,08,21,08,28,16.40
2011,08,21,08,29,16.50
2011,08,21,08,30,16.60
2011,08,21,08,31,16.60
2011,08,21,08,32,16.70
2011,08,21,08,33,16.80
2011,08,21,08,34,16.80
2011,08,21,08,35,17.00
2011,08,21,08,36,17.10
2011,08,21,08,37,17.30
2011,08,21,08,38,17.50
2011,08,21,08,39,17.60
2011,08,21,08,40,17.80
2011,08,21,08,41,17.90
2011,08,21,08,42,18.10
2011,08,21,08,43,18.20
2011,08,21,08,44,18.30
2011,08,21,08,45,18.40
2011,08,21,08,46,18.50
2011,08,21,08,47,18.50
2011,08,21,08,48,18.60
2011,08,21,08,49,18.60
2011,08,21,08,50,18.60
2011,08,21,08,51,18.70
2011,08,21,08,52,18.70
2011,08,21,08,53,18.70
2011,08,21,08,54,18.80
2011,08,21,08,55,18.80
2011,08,21,08,56,18.80
2011,08,21,08,57,18.80
2011,08,21,08,58,18.90
2011,08,21,08,59,18.90
2011,08,21,09,00,18.90
2011,08,21,09,01,18.90
2011,08,21,09,02,19.00
2011,08,21,09,03,19.10
2011,08,21,09,04,19.20
2011,08,21,09,05,19.30
2011,08,21,09,06,19.40
2011,08,21,09,07,19.50
2011,08,21,09,08,19.60
2011,08,21,09,09,19.80
2011,08,21,09,10,19.80
2011,08,21,09,11,19.90
2011,08,21,09,12,19.90
2011,08,21,09,13,19.90
2011,08,21,09,14,20.00
2011,08,21,09,15,20.00
2011,08,21,09,16,20.10
2011,08,21,09,17,20.10
2011,08,21,09,18,20.10
2011,08,21,09,19,20.20
2011,08,21,09,20,20.20
2011,08,21,09,21,20.30
2011,08,21,09,22,20.30
2011,08,21,09,23,20.40
2011,08,21,09,24,20.40
2011,08,21,09,25,20.40
2011,08,21,09,26,20.40
2011,08,21,09,27,20.50
2011,08,21,09,28,20.50
2011,08,21,09,29,20.60
2011,08,21,09,30,20.60
2011,08,21,09,31,20.60
2011,08,21,09,32,20.60
2011,08,21,09,33,20.60
2011,08,21,09,34,20.60
2011,08,21,09,35,20.70
2011,08,21,09,36,20.70
2011,08,21,09,37,20.80
2011,08,21,09,38,20.90
2011,08,21,09,39,21.00
2011,08,21,09,40,21.10
2011,08,21,09,41,21.20
2011,08,21,09,42,21.20
2011,08,21,09,43,21.10
2011,08,21,09,44,21.10
2011,08,21,09,45,21.10
2011,08,21,09,46,21.10
2011,08,21,09,47,21.10
2011,08,21,09,48,21.10
2011,08,21,09,49,21.10
2011,08,21,09,50,21.10
2011,08,21,09,51,21.20
2011,08,21,09,52,21.20
2011,08,21,09,53,21.20
2011,08,21,09,54,21.10
2011,08,21,09,55,21.10
2011,08,21,09,56,21.10
2011,08,21,09,57,21.20
2011,08,21,09,58,21.20
2011,08,21,09,59,21.20
2011,08,21,10,00,21.20
2011,08,21,10,01,21.30
2011,08,21,10,02,21.30
2011,08,21,10,03,21.30
2011,08,21,10,04,21.40
2011,08,21,10,05,21.40
2011,08,21,10,06,21.50
2011,08,21,10,07,21.60
2011,08,21,10,08,21.60
2011,08,21,10,09,21.60
2011,08,21,10,10,21.60
2011,08,21,10,11,21.60
2011,08,21,10,12,21.60
2011,08,21,10,13,21.70
2011,08,21,10,14,21.70
2011,08,21,10,15,21.70
2011,08,21,10,16,21.70
2011,08,21,10,17,21.70
2011,08,21,10,18,21.70
2011,08,21,10,19,21.70
2011,08,21,10,20,21.70
2011,08,21,10,21,21.70
2011,08,21,10,22,21.70
2011,08,21,10,23,21.70
2011,08,21,10,24,21.80
2011,08,21,10,25,21.80
2011,08,21,10,26,21.90
2011,08,21,10,27,22.00
2011,08,21,10,28,22.10
2011,08,21,10,29,22.10
2011,08,21,10,30,22.20
2011,08,21,10,31,22.20
2011,08,21,10,32,22.20
2011,08,21,10,33,22.10
2011,08,21,10,34,22.10
2011,08,21,10,35,22.10
2011,08,21,10,36,22.00
2011,08,21,10,37,22.00
2011,08,21,10,38,21.90
2011,08,21,10,39,21.90
2011,08,21,10,40,21.90
2011,08,21,10,41,21.90
2011,08,21,10,42,21.90
2011,08,21,10,43,21.90
2011,08,21,10,44,21.80
2011,08,21,10,45,21.80
2011,08,21,10,46,21.80
2011,08,21,10,47,21.80
2011,08,21,10,48,21.90
2011,08,21,10,49,21.90
2011,08,21,10,50,21.90
2011,08,21,10,51,21.90
2011,08,21,10,52,21.90
2011,08,21,10,53,22.00
2011,08,21,10,54,22.00
2011,08,21,10,55,22.10
2011,08,21,10,56,22.10
2011,08,21,10,57,22.20
2011,08,21,10,58,22.20
2011,08,21,10,59,22.20
2011,08,21,11,00,22.20
2011,08,21,11,01,22.20
2011,08,21,11,02,22.20
2011,08,21,11,03,22.10
2011,08,21,11,04,22.10
2011,08,21,11,05,22.10
2011,08,21,11,06,22.10
2011,08,21,11,07,22.10
2011,08,21,11,08,22.10
2011,08,21,11,09,22.10
2011,08,21,11,10,22.20
2011,08,21,11,11,22.20
2011,08,21,11,12,22.30
2011,08,21,11,13,22.40
2011,08,21,11,14,22.40
2011,08,21,11,15,22.40
2011,08,21,11,16,22.50
2011,08,21,11,17,22.50
2011,08,21,11,18,22.50
2011,08,21,11,19,22.50
2011,08,21,11,20,22.50
2011,08,21,11,21,22.50
2011,08,21,11,22,22.50
2011,08,21,11,23,22.50
2011,08,21,11,24,22.50
2011,08,21,11,25,22.50
2011,08,21,11,26,22.40
2011,08,21,11,27,22.30
2011,08,21,11,28,22.30
2011,08,21,11,29,22.30
2011,08,21,11,30,22.20
2011,08,21,11,31,22.10
2011,08,21,11,32,22.10
2011,08,21,11,33,22.00
2011,08,21,11,34,22.00
2011,08,21,11,35,22.00
2011,08,21,11,36,22.00
2011,08,21,11,37,22.00
2011,08,21,11,38,22.10
2011,08,21,11,39,22.00
2011,08,21,11,40,22.10
2011,08,21,11,41,22.10
2011,08,21,11,42,22.10
2011,08,21,11,43,22.10
2011,08,21,11,44,22.10
2011,08,21,11,45,22.10
2011,08,21,11,46,22.10
2011,08,21,11,47,22.10
2011,08,21,11,48,22.10
2011,08,21,11,49,22.10
2011,08,21,11,50,22.10
2011,08,21,11,51,22.10
2011,08,21,11,52,22.10
2011,08,21,11,53,22.20
2011,08,21,11,54,22.20
2011,08,21,11,55,22.30
2011,08,21,11,56,22.30
2011,08,21,11,57,22.40
2011,08,21,11,58,22.40
2011,08,21,11,59,22.40
2011,08,21,12,00,22.40
2011,08,21,12,01,22.40
2011,08,21,12,02,22.40
2011,08,21,12,03,22.50
2011,08,21,12,04,22.50
2011,08,21,12,05,22.50
2011,08,21,12,06,22.50
2011,08,21,12,07,22.50
2011,08,21,12,08,22.50
2011,08,21,12,09,22.50
2011,08,21,12,10,22.40
2011,08,21,12,11,22.40
2011,08,21,12,12,22.40
2011,08,21,12,13,22.40
2011,08,21,12,14,22.40
2011,08,21,12,15,22.40
2011,08,21,12,16,22.40
2011,08,21,12,17,22.40
2011,08,21,12,18,22.50
2011,08,21,12,19,22.50
2011,08,21,12,20,22.60
2011,08,21,12,21,22.60
2011,08,21,12,22,22.70
2011,08,21,12,23,22.70
2011,08,21,12,24,22.70
2011,08,21,12,25,22.70
2011,08,21,12,26,22.70
2011,08,21,12,27,22.70
2011,08,21,12,28,22.70
2011,08,21,12,29,22.70
2011,08,21,12,30,22.70
2011,08,21,12,31,22.60
2011,08,21,12,32,22.60
2011,08,21,12,33,22.60
2011,08,21,12,34,22.50
2011,08,21,12,35,22.50
2011,08,21,12,36,22.40
2011,08,21,12,37,22.40
2011,08,21,12,38,22.30
2011,08,21,12,39,22.30
2011,08,21,12,40,22.30
2011,08,21,12,41,22.30
2011,08,21,12,42,22.30
2011,08,21,12,43,22.20
2011,08,21,12,44,22.30
2011,08,21,12,45,22.30
2011,08,21,12,46,22.30
2011,08,21,12,47,22.20
2011,08,21,12,48,22.20
2011,08,21,12,49,22.20
2011,08,21,12,50,22.20
2011,08,21,12,51,22.20
2011,08,21,12,52,22.20
2011,08,21,12,53,22.20
2011,08,21,12,54,22.20
2011,08,21,12,55,22.20
2011,08,21,12,56,22.10
2011,08,21,12,57,22.10
2011,08,21,12,58,22.10
2011,08,21,12,59,22.10
2011,08,21,13,00,22.10
2011,08,21,13,01,22.10
2011,08,21,13,02,22.20
2011,08,21,13,03,22.20
2011,08,21,13,04,22.20
2011,08,21,13,05,22.20
2011,08,21,13,06,22.20
2011,08,21,13,07,22.30
2011,08,21,13,08,22.30
2011,08,21,13,09,22.30
2011,08,21,13,10,22.40
2011,08,21,13,11,22.40
2011,08,21,13,12,22.50
2011,08,21,13,13,22.50
2011,08,21,13,14,22.50
2011,08,21,13,15,22.40
2011,08,21,13,16,22.40
2011,08,21,13,17,22.40
2011,08,21,13,18,22.40
2011,08,21,13,19,22.40
2011,08,21,13,20,22.40
2011,08,21,13,21,22.50
2011,08,21,13,22,22.50
2011,08,21,13,23,22.50
2011,08,21,13,24,22.50
2011,08,21,13,25,22.60
2011,08,21,13,26,22.60
2011,08,21,13,27,22.60
2011,08,21,13,28,22.60
2011,08,21,13,29,22.60
2011,08,21,13,30,22.70
2011,08,21,13,31,22.70
2011,08,21,13,32,22.70
2011,08,21,13,33,22.70
2011,08,21,13,34,22.70
2011,08,21,13,35,22.80
2011,08,21,13,36,22.80
2011,08,21,13,37,22.80
2011,08,21,13,38,22.90
2011,08,21,13,39,22.90
2011,08,21,13,40,22.90
2011,08,21,13,41,22.90
2011,08,21,13,42,23.00
2011,08,21,13,43,23.00
2011,08,21,13,44,23.10
2011,08,21,13,45,23.10
2011,08,21,13,46,23.10
2011,08,21,13,47,23.20
2011,08,21,13,48,23.20
2011,08,21,13,49,23.20
2011,08,21,13,50,23.20
2011,08,21,13,51,23.20
2011,08,21,13,52,23.30
2011,08,21,13,53,23.30
2011,08,21,13,54,23.40
2011,08,21,13,55,23.40
2011,08,21,13,56,23.50
2011,08,21,13,57,23.60
2011,08,21,13,58,23.70
2011,08,21,13,59,23.80
2011,08,21,14,00,23.80
2011,08,21,14,01,23.80
2011,08,21,14,02,23.90
2011,08,21,14,03,23.90
2011,08,21,14,04,24.00
2011,08,21,14,05,24.10
2011,08,21,14,06,24.10
2011,08,21,14,07,24.20
2011,08,21,14,08,24.30
2011,08,21,14,09,24.40
2011,08,21,14,10,24.50
2011,08,21,14,11,24.60
2011,08,21,14,12,24.70
2011,08,21,14,13,24.70
2011,08,21,14,14,24.80
2011,08,21,14,15,24.80
2011,08,21,14,16,24.90
2011,08,21,14,17,25.00
2011,08,21,14,18,25.10
2011,08,21,14,19,25.20
2011,08,21,14,20,25.30
2011,08,21,14,21,25.30
2011,08,21,14,22,25.20
2011,08,21,14,23,25.20
2011,08,21,14,24,25.20
2011,08,21,14,25,25.20
2011,08,21,14,26,25.10
2011,08,21,14,27,25.10
2011,08,21,14,28,25.00
2011,08,21,14,29,25.00
2011,08,21,14,30,24.90
2011,08,21,14,31,25.00
2011,08,21,14,32,25.00
2011,08,21,14,33,25.10
2011,08,21,14,34,25.20
2011,08,21,14,35,25.20
2011,08,21,14,36,25.20
2011,08,21,14,37,25.20
2011,08,21,14,38,25.30
2011,08,21,14,39,25.30
2011,08,21,14,40,25.30
2011,08,21,14,41,25.30
2011,08,21,14,42,25.20
2011,08,21,14,43,25.20
2011,08,21,14,44,25.10
2011,08,21,14,45,25.10
2011,08,21,14,46,25.10
2011,08,21,14,47,25.10
2011,08,21,14,48,25.10
2011,08,21,14,49,25.10
2011,08,21,14,50,25.20
2011,08,21,14,51,25.20
2011,08,21,14,52,25.30
2011,08,21,14,53,25.50
2011,08,21,14,54,25.60
2011,08,21,14,55,25.70
2011,08,21,14,56,25.70
2011,08,21,14,57,25.80
2011,08,21,14,58,25.90
2011,08,21,14,59,25.90
2011,08,21,15,00,25.90
2011,08,21,15,01,25.80
2011,08,21,15,02,25.70
2011,08,21,15,03,25.60
2011,08,21,15,04,25.60
2011,08,21,15,05,25.60
2011,08,21,15,06,25.70
2011,08,21,15,07,25.80
2011,08,21,15,08,25.90
2011,08,21,15,09,25.90
2011,08,21,15,10,25.90
2011,08,21,15,11,25.80
2011,08,21,15,12,25.80
2011,08,21,15,13,25.80
2011,08,21,15,14,25.90
2011,08,21,15,15,25.90
2011,08,21,15,16,25.70
2011,08,21,15,17,25.70
2011,08,21,15,18,25.60
2011,08,21,15,19,25.50
2011,08,21,15,20,25.40
2011,08,21,15,21,25.40
2011,08,21,15,22,25.30
2011,08,21,15,23,25.20
2011,08,21,15,24,25.20
2011,08,21,15,25,25.10
2011,08,21,15,26,25.10
2011,08,21,15,27,25.00
2011,08,21,15,28,25.00
2011,08,21,15,29,25.00
2011,08,21,15,30,25.00
2011,08,21,15,31,25.00
2011,08,21,15,32,25.00
2011,08,21,15,33,25.00
2011,08,21,15,34,25.10
2011,08,21,15,35,25.10
2011,08,21,15,36,25.10
2011,08,21,15,37,25.10
2011,08,21,15,38,25.20
2011,08,21,15,39,25.30
2011,08,21,15,40,25.30
2011,08,21,15,41,25.30
2011,08,21,15,42,25.30
2011,08,21,15,43,25.20
2011,08,21,15,44,25.20
2011,08,21,15,45,25.20
2011,08,21,15,46,25.20
2011,08,21,15,47,25.10
2011,08,21,15,48,25.10
2011,08,21,15,49,25.10
2011,08,21,15,50,25.10
2011,08,21,15,51,25.10
2011,08,21,15,52,25.10
2011,08,21,15,53,25.00
2011,08,21,15,54,25.00
2011,08,21,15,55,24.90
2011,08,21,15,56,24.90
2011,08,21,15,57,24.80
2011,08,21,15,58,24.80
2011,08,21,15,59,24.80
2011,08,21,16,00,24.90
2011,08,21,16,01,24.90
2011,08,21,16,02,25.00
2011,08,21,16,03,25.00
2011,08,21,16,04,25.10
2011,08,21,16,05,25.10
2011,08,21,16,06,25.20
2011,08,21,16,07,25.20
2011,08,21,16,08,25.30
2011,08,21,16,09,25.30
2011,08,21,16,10,25.40
2011,08,21,16,11,25.40
2011,08,21,16,12,25.50
2011,08,21,16,13,25.50
2011,08,21,16,14,25.50
2011,08,21,16,15,25.50
2011,08,21,16,16,25.50
2011,08,21,16,17,25.50
2011,08,21,16,18,25.50
2011,08,21,16,19,25.50
2011,08,21,16,20,25.50
2011,08,21,16,21,25.40
2011,08,21,16,22,25.40
2011,08,21,16,23,25.40
2011,08,21,16,24,25.50
2011,08,21,16,25,25.50
2011,08,21,16,26,25.60
2011,08,21,16,27,25.60
2011,08,21,16,28,25.70
2011,08,21,16,29,25.80
2011,08,21,16,30,25.90
2011,08,21,16,31,25.90
2011,08,21,16,32,25.90
2011,08,21,16,33,25.90
2011,08,21,16,34,25.90
2011,08,21,16,35,25.90
2011,08,21,16,36,25.90
2011,08,21,16,37,25.90
2011,08,21,16,38,25.90
2011,08,21,16,39,25.90
2011,08,21,16,40,25.90
2011,08,21,16,41,25.90
2011,08,21,16,42,25.90
2011,08,21,16,43,25.90
2011,08,21,16,44,25.90
2011,08,21,16,45,25.90
2011,08,21,16,46,25.80
2011,08,21,16,47,25.80
2011,08,21,16,48,25.70
2011,08,21,16,49,25.60
2011,08,21,16,50,25.60
2011,08,21,16,51,25.50
2011,08,21,16,52,25.40
2011,08,21,16,53,25.40
2011,08,21,16,54,25.40
2011,08,21,16,55,25.40
2011,08,21,16,56,25.40
2011,08,21,16,57,25.30
2011,08,21,16,58,25.30
2011,08,21,16,59,25.30
2011,08,21,17,00,25.30
2011,08,21,17,01,25.30
2011,08,21,17,02,25.30
2011,08,21,17,03,25.30
2011,08,21,17,04,25.20
2011,08,21,17,05,25.20
2011,08,21,17,06,25.20
2011,08,21,17,07,25.20
2011,08,21,17,08,25.20
2011,08,21,17,09,25.20
2011,08,21,17,10,25.20
2011,08,21,17,11,25.20
2011,08,21,17,12,25.20
2011,08,21,17,13,25.20
2011,08,21,17,14,25.20
2011,08,21,17,15,25.20
2011,08,21,17,16,25.20
2011,08,21,17,17,25.20
2011,08,21,17,18,25.20
2011,08,21,17,19,25.20
2011,08,21,17,20,25.20
2011,08,21,17,21,25.20
2011,08,21,17,22,25.20